Time,TemperatureF,DewpointF,PressureIn,WindDirection,WindDirectionDegrees,WindSpeedMPH,WindSpeedGustMPH,Humidity,HourlyPrecipIn,Conditions,Clouds,dailyrainin,SoftwareType,DateUTC
2013-11-07 00:01:00,67.3,63.9,30.07,North,0,0.0,0.0,89,0.00,,,0.00,WUHU21623XXSP,2013-11-07 06:01:00,
2013-11-07 00:11:00,67.3,63.9,30.08,North,0,0.0,0.0,89,0.00,,,0.00,WUHU21623XXSP,2013-11-07 06:11:00,
2013-11-07 00:16:00,67.3,63.9,30.07,North,0,0.0,0.0,89,0.00,,,0.00,WUHU21623XXSP,2013-11-07 06:16:00,
2013-11-07 00:21:00,67.3,63.9,30.08,North,0,0.0,0.0,89,0.00,,,0.00,WUHU21623XXSP,2013-11-07 06:21:00,
2013-11-07 00:26:00,67.3,63.9,30.08,North,0,0.0,0.0,89,0.00,,,0.00,WUHU21623XXSP,2013-11-07 06:26:00,
2013-11-07 00:31:00,67.3,63.9,30.07,North,0,0.0,0.0,89,0.00,,,0.00,WUHU21623XXSP,2013-11-07 06:31:00,
2013-11-07 00:36:00,67.3,63.9,30.07,North,0,0.0,0.0,89,0.00,,,0.00,WUHU21623XXSP,2013-11-07 06:36:00,
2013-11-07 00:41:00,67.3,63.9,30.07,North,0,0.0,0.0,89,0.00,,,0.00,WUHU21623XXSP,2013-11-07 06:41:00,
2013-11-07 00:46:00,67.1,63.7,30.07,North,0,0.0,0.0,89,0.00,,,0.00,WUHU21623XXSP,2013-11-07 06:46:00,
2013-11-07 00:51:00,67.1,63.7,30.07,North,0,0.0,0.0,89,0.00,,,0.00,WUHU21623XXSP,2013-11-07 06:51:00,
2013-11-07 00:56:00,66.9,63.5,30.07,North,0,0.0,0.0,89,0.00,,,0.00,WUHU21623XXSP,2013-11-07 06:56:00,
2013-11-07 01:01:00,66.9,63.5,30.06,North,0,0.0,0.0,89,0.00,,,0.00,WUHU21623XXSP,2013-11-07 07:01:00,
2013-11-07 01:08:00,66.9,63.5,30.06,North,0,0.0,0.0,89,0.00,,,0.00,WUHU21623XXSP,2013-11-07 07:08:00,
2013-11-07 01:13:00,66.7,63.4,30.06,North,0,0.0,0.0,89,0.00,,,0.00,WUHU21623XXSP,2013-11-07 07:13:00,
2013-11-07 01:18:00,66.7,63.4,30.06,North,0,0.0,0.0,89,0.00,,,0.00,WUHU21623XXSP,2013-11-07 07:18:00,
2013-11-07 01:23:00,66.7,63.4,30.05,North,0,0.0,0.0,89,0.00,,,0.00,WUHU21623XXSP,2013-11-07 07:23:00,
2013-11-07 01:28:00,66.6,63.2,30.05,North,0,0.0,0.0,89,0.00,,,0.00,WUHU21623XXSP,2013-11-07 07:28:00,
2013-11-07 01:33:00,66.6,63.2,30.05,North,0,0.0,0.0,90,0.00,,,0.00,WUHU21623XXSP,2013-11-07 07:33:00,
2013-11-07 01:39:00,66.6,63.5,30.05,North,0,0.0,0.0,90,0.00,,,0.00,WUHU21623XXSP,2013-11-07 07:39:00,
2013-11-07 01:44:00,66.4,63.3,30.05,North,0,0.0,0.0,90,0.00,,,0.00,WUHU21623XXSP,2013-11-07 07:44:00,
2013-11-07 01:49:00,66.4,63.3,30.05,North,0,0.0,0.0,90,0.00,,,0.00,WUHU21623XXSP,2013-11-07 07:49:00,
2013-11-07 01:54:00,66.4,63.3,30.05,North,0,0.0,0.0,90,0.00,,,0.00,WUHU21623XXSP,2013-11-07 07:54:00,
2013-11-07 01:59:00,66.4,63.3,30.05,North,0,0.0,0.0,90,0.00,,,0.00,WUHU21623XXSP,2013-11-07 07:59:00,
2013-11-07 02:04:00,66.4,63.6,30.04,North,0,0.0,0.0,91,0.00,,,0.00,WUHU21623XXSP,2013-11-07 08:04:00,
2013-11-07 02:09:00,66.6,63.8,30.04,North,0,0.0,0.0,91,0.00,,,0.00,WUHU21623XXSP,2013-11-07 08:09:00,
2013-11-07 02:13:00,66.6,63.8,30.04,North,0,0.0,0.0,91,0.00,,,0.00,WUHU21623XXSP,2013-11-07 08:13:00,
2013-11-07 02:18:00,66.7,64.0,30.04,North,0,0.0,0.0,91,0.00,,,0.00,WUHU21623XXSP,2013-11-07 08:18:00,
2013-11-07 02:23:00,66.7,64.0,30.04,North,0,0.0,0.0,91,0.00,,,0.00,WUHU21623XXSP,2013-11-07 08:23:00,
2013-11-07 02:28:00,66.7,64.0,30.04,North,0,0.0,0.0,91,0.00,,,0.00,WUHU21623XXSP,2013-11-07 08:28:00,
2013-11-07 02:34:00,66.9,64.2,30.03,North,0,0.0,0.0,91,0.00,,,0.00,WUHU21623XXSP,2013-11-07 08:34:00,
2013-11-07 02:39:00,66.9,64.5,30.03,North,0,0.0,0.0,92,0.00,,,0.00,WUHU21623XXSP,2013-11-07 08:39:00,
2013-11-07 02:44:00,66.9,64.5,30.03,North,0,0.0,0.0,92,0.00,,,0.00,WUHU21623XXSP,2013-11-07 08:44:00,
2013-11-07 02:49:00,67.1,64.7,30.03,North,0,0.0,0.0,92,0.00,,,0.00,WUHU21623XXSP,2013-11-07 08:49:00,
2013-11-07 02:54:00,67.1,64.7,30.03,North,0,0.0,0.0,92,0.00,,,0.00,WUHU21623XXSP,2013-11-07 08:54:00,
2013-11-07 02:59:00,67.1,64.7,30.03,North,0,0.0,0.0,92,0.00,,,0.00,WUHU21623XXSP,2013-11-07 08:59:00,
2013-11-07 03:04:00,67.3,64.8,30.03,North,0,0.0,0.0,92,0.00,,,0.00,WUHU21623XXSP,2013-11-07 09:04:00,
2013-11-07 03:09:00,67.3,64.8,30.03,North,0,0.0,0.0,92,0.00,,,0.00,WUHU21623XXSP,2013-11-07 09:09:00,
2013-11-07 03:14:00,67.3,64.8,30.02,North,0,0.0,0.0,92,0.00,,,0.00,WUHU21623XXSP,2013-11-07 09:14:00,
2013-11-07 03:19:00,67.3,64.8,30.02,North,0,0.0,0.0,92,0.00,,,0.00,WUHU21623XXSP,2013-11-07 09:19:00,
2013-11-07 03:24:00,67.3,64.8,30.03,North,0,0.0,0.0,92,0.00,,,0.00,WUHU21623XXSP,2013-11-07 09:24:00,
2013-11-07 03:29:00,67.3,64.8,30.03,North,0,0.0,0.0,92,0.00,,,0.00,WUHU21623XXSP,2013-11-07 09:29:00,
2013-11-07 03:34:00,67.3,64.8,30.03,North,0,0.0,0.0,92,0.00,,,0.00,WUHU21623XXSP,2013-11-07 09:34:00,
2013-11-07 03:39:00,67.5,64.8,30.03,North,0,0.0,0.0,92,0.00,,,0.00,WUHU21623XXSP,2013-11-07 09:39:00,
2013-11-07 03:44:00,67.6,65.2,30.03,North,0,0.0,0.0,92,0.00,,,0.00,WUHU21623XXSP,2013-11-07 09:44:00,
2013-11-07 03:49:00,67.6,65.2,30.03,North,0,0.0,0.0,92,0.00,,,0.00,WUHU21623XXSP,2013-11-07 09:49:00,
2013-11-07 03:54:00,67.6,65.2,30.03,North,0,0.0,0.0,92,0.00,,,0.00,WUHU21623XXSP,2013-11-07 09:54:00,
2013-11-07 03:59:00,67.8,65.4,30.03,North,0,0.0,0.0,92,0.00,,,0.00,WUHU21623XXSP,2013-11-07 09:59:00,
2013-11-07 04:04:00,67.8,65.7,30.04,North,0,0.0,0.0,93,0.06,,,0.06,WUHU21623XXSP,2013-11-07 10:04:00,
2013-11-07 04:09:00,68.2,66.0,30.04,North,0,0.0,0.0,93,0.08,,,0.08,WUHU21623XXSP,2013-11-07 10:09:00,
2013-11-07 04:14:00,68.2,66.0,30.04,North,0,0.0,0.0,93,0.10,,,0.10,WUHU21623XXSP,2013-11-07 10:14:00,
2013-11-07 04:19:00,68.4,66.2,30.04,North,0,0.0,0.0,93,0.12,,,0.12,WUHU21623XXSP,2013-11-07 10:19:00,
2013-11-07 04:24:00,68.2,66.0,30.04,North,0,0.0,0.0,93,0.12,,,0.12,WUHU21623XXSP,2013-11-07 10:24:00,
2013-11-07 04:29:00,68.2,66.0,30.04,North,0,0.0,0.0,93,0.14,,,0.14,WUHU21623XXSP,2013-11-07 10:29:00,
2013-11-07 04:34:00,68.2,66.3,30.05,North,0,0.0,0.0,94,0.14,,,0.14,WUHU21623XXSP,2013-11-07 10:34:00,
2013-11-07 04:39:00,67.8,66.0,30.05,North,0,0.0,0.0,94,0.14,,,0.14,WUHU21623XXSP,2013-11-07 10:39:00,
2013-11-07 04:44:00,67.6,65.5,30.05,North,0,0.0,0.0,93,0.14,,,0.14,WUHU21623XXSP,2013-11-07 10:44:00,
2013-11-07 04:49:00,67.5,65.3,30.05,North,0,0.0,0.0,93,0.14,,,0.14,WUHU21623XXSP,2013-11-07 10:49:00,
2013-11-07 04:54:00,67.3,65.1,30.05,North,0,0.0,0.0,93,0.14,,,0.14,WUHU21623XXSP,2013-11-07 10:54:00,
2013-11-07 04:59:00,66.9,64.8,30.06,North,0,0.0,0.0,93,0.08,,,0.14,WUHU21623XXSP,2013-11-07 10:59:00,
2013-11-07 05:04:00,66.7,64.6,30.07,North,0,0.0,0.0,93,0.08,,,0.14,WUHU21623XXSP,2013-11-07 11:04:00,
2013-11-07 05:09:00,66.6,64.4,30.07,North,0,0.0,0.0,93,0.04,,,0.14,WUHU21623XXSP,2013-11-07 11:09:00,
2013-11-07 05:14:00,66.4,64.2,30.08,North,0,0.0,0.0,93,0.02,,,0.14,WUHU21623XXSP,2013-11-07 11:14:00,
2013-11-07 05:19:00,66.0,63.9,30.08,North,0,0.0,0.0,93,0.02,,,0.14,WUHU21623XXSP,2013-11-07 11:19:00,
2013-11-07 05:24:00,66.0,63.9,30.08,North,0,0.0,0.0,93,0.02,,,0.14,WUHU21623XXSP,2013-11-07 11:24:00,
2013-11-07 05:29:00,65.8,63.7,30.08,North,0,0.0,0.0,93,0.00,,,0.14,WUHU21623XXSP,2013-11-07 11:29:00,
2013-11-07 05:34:00,65.5,63.4,30.08,North,0,0.0,0.0,93,0.00,,,0.14,WUHU21623XXSP,2013-11-07 11:34:00,
2013-11-07 05:39:00,65.3,63.2,30.08,North,0,0.0,0.0,93,0.00,,,0.14,WUHU21623XXSP,2013-11-07 11:39:00,
2013-11-07 05:44:00,65.1,63.0,30.09,North,0,0.0,0.0,93,0.00,,,0.14,WUHU21623XXSP,2013-11-07 11:44:00,
2013-11-07 05:49:00,65.1,63.0,30.09,North,0,0.0,0.0,93,0.00,,,0.14,WUHU21623XXSP,2013-11-07 11:49:00,
2013-11-07 05:54:00,64.9,62.9,30.09,North,0,0.0,0.0,93,0.00,,,0.14,WUHU21623XXSP,2013-11-07 11:54:00,
2013-11-07 05:59:00,64.9,62.9,30.09,North,0,0.0,0.0,93,0.00,,,0.14,WUHU21623XXSP,2013-11-07 11:59:00,
2013-11-07 06:04:00,64.9,62.9,30.10,North,0,0.0,0.0,93,0.00,,,0.14,WUHU21623XXSP,2013-11-07 12:04:00,
2013-11-07 06:09:00,64.8,62.7,30.10,North,0,0.0,0.0,93,0.00,,,0.14,WUHU21623XXSP,2013-11-07 12:09:00,
2013-11-07 06:14:00,64.8,62.7,30.10,North,0,0.0,0.0,93,0.00,,,0.14,WUHU21623XXSP,2013-11-07 12:14:00,
2013-11-07 06:19:00,64.8,62.7,30.10,North,0,0.0,0.0,93,0.00,,,0.14,WUHU21623XXSP,2013-11-07 12:19:00,
2013-11-07 06:24:00,64.8,62.7,30.11,North,0,0.0,0.0,93,0.00,,,0.14,WUHU21623XXSP,2013-11-07 12:24:00,
2013-11-07 06:29:00,64.6,62.5,30.11,North,0,0.0,0.0,93,0.00,,,0.14,WUHU21623XXSP,2013-11-07 12:29:00,
2013-11-07 06:34:00,64.6,62.5,30.12,North,0,0.0,0.0,93,0.00,,,0.14,WUHU21623XXSP,2013-11-07 12:34:00,
2013-11-07 06:39:00,64.6,62.5,30.12,North,0,0.0,0.0,93,0.00,,,0.14,WUHU21623XXSP,2013-11-07 12:39:00,
2013-11-07 06:44:00,64.6,62.5,30.12,North,0,0.0,0.0,93,0.00,,,0.14,WUHU21623XXSP,2013-11-07 12:44:00,
2013-11-07 06:49:00,64.6,62.5,30.13,North,0,0.0,0.0,93,0.00,,,0.14,WUHU21623XXSP,2013-11-07 12:49:00,
2013-11-07 06:54:00,64.6,62.5,30.13,North,0,0.0,0.0,93,0.00,,,0.14,WUHU21623XXSP,2013-11-07 12:54:00,
2013-11-07 06:59:00,64.8,62.7,30.13,North,0,0.0,0.0,93,0.00,,,0.14,WUHU21623XXSP,2013-11-07 12:59:00,
2013-11-07 07:04:00,64.6,62.5,30.13,North,0,0.0,0.0,93,0.00,,,0.14,WUHU21623XXSP,2013-11-07 13:04:00,
2013-11-07 07:09:00,64.8,62.7,30.14,North,0,0.0,0.0,93,0.00,,,0.14,WUHU21623XXSP,2013-11-07 13:09:00,
2013-11-07 07:14:00,64.8,62.7,30.14,North,0,0.0,0.0,93,0.00,,,0.14,WUHU21623XXSP,2013-11-07 13:14:00,
2013-11-07 07:19:00,64.8,62.7,30.14,North,0,0.0,0.0,93,0.00,,,0.14,WUHU21623XXSP,2013-11-07 13:19:00,
2013-11-07 07:24:00,64.8,62.7,30.14,North,0,0.0,0.0,93,0.00,,,0.14,WUHU21623XXSP,2013-11-07 13:24:00,
2013-11-07 07:29:00,64.8,62.7,30.14,North,0,0.0,0.0,93,0.00,,,0.14,WUHU21623XXSP,2013-11-07 13:29:00,
2013-11-07 07:34:00,64.8,62.7,30.14,North,0,0.0,0.0,93,0.00,,,0.14,WUHU21623XXSP,2013-11-07 13:34:00,
2013-11-07 07:39:00,64.6,62.5,30.15,North,0,0.0,0.0,93,0.00,,,0.14,WUHU21623XXSP,2013-11-07 13:39:00,
2013-11-07 07:44:00,64.4,62.4,30.15,North,0,0.0,0.0,93,0.00,,,0.14,WUHU21623XXSP,2013-11-07 13:44:00,
2013-11-07 07:49:00,64.4,62.4,30.16,North,0,0.0,0.0,93,0.00,,,0.14,WUHU21623XXSP,2013-11-07 13:49:00,
2013-11-07 07:54:00,64.2,62.2,30.16,North,0,0.0,0.0,93,0.00,,,0.14,WUHU21623XXSP,2013-11-07 13:54:00,
2013-11-07 07:59:00,64.0,61.7,30.16,North,0,0.0,0.0,92,0.00,,,0.14,WUHU21623XXSP,2013-11-07 13:59:00,
2013-11-07 08:04:00,63.5,61.2,30.16,North,0,0.0,0.0,92,0.00,,,0.14,WUHU21623XXSP,2013-11-07 14:04:00,
2013-11-07 08:09:00,63.0,60.8,30.16,North,0,0.0,0.0,92,0.02,,,0.16,WUHU21623XXSP,2013-11-07 14:09:00,
2013-11-07 08:14:00,62.8,60.7,30.17,North,0,0.0,0.0,91,0.02,,,0.16,WUHU21623XXSP,2013-11-07 14:14:00,
2013-11-07 08:19:00,62.4,60.0,30.17,North,0,0.0,0.0,91,0.02,,,0.16,WUHU21623XXSP,2013-11-07 14:19:00,
2013-11-07 08:24:00,62.2,59.8,30.17,North,0,0.0,0.0,91,0.02,,,0.16,WUHU21623XXSP,2013-11-07 14:24:00,
2013-11-07 08:29:00,62.2,59.6,30.17,North,0,0.0,0.0,91,0.02,,,0.16,WUHU21623XXSP,2013-11-07 14:29:00,
2013-11-07 08:34:00,62.2,59.6,30.17,North,0,0.0,0.0,91,0.02,,,0.16,WUHU21623XXSP,2013-11-07 14:34:00,
2013-11-07 08:39:00,62.2,59.9,30.17,North,0,0.0,0.0,92,0.02,,,0.16,WUHU21623XXSP,2013-11-07 14:39:00,
2013-11-07 08:44:00,62.2,59.9,30.17,North,0,0.0,0.0,91,0.02,,,0.16,WUHU21623XXSP,2013-11-07 14:44:00,
2013-11-07 08:49:00,62.4,60.1,30.17,North,0,0.0,0.0,91,0.02,,,0.16,WUHU21623XXSP,2013-11-07 14:49:00,
2013-11-07 08:54:00,62.6,60.0,30.17,North,0,0.0,0.0,91,0.02,,,0.16,WUHU21623XXSP,2013-11-07 14:54:00,
2013-11-07 08:59:00,62.6,60.0,30.18,North,0,0.0,0.0,91,0.02,,,0.16,WUHU21623XXSP,2013-11-07 14:59:00,
2013-11-07 09:04:00,62.8,59.7,30.18,North,0,0.0,0.0,90,0.02,,,0.16,WUHU21623XXSP,2013-11-07 15:04:00,
2013-11-07 09:09:00,62.6,59.9,30.18,North,0,0.0,0.0,90,0.00,,,0.16,WUHU21623XXSP,2013-11-07 15:09:00,
2013-11-07 09:14:00,62.6,59.7,30.18,North,0,0.0,0.0,90,0.00,,,0.16,WUHU21623XXSP,2013-11-07 15:14:00,
2013-11-07 09:19:00,62.4,59.2,30.18,North,0,0.0,0.0,89,0.00,,,0.16,WUHU21623XXSP,2013-11-07 15:19:00,
2013-11-07 09:24:00,62.4,59.2,30.18,North,0,0.0,0.0,89,0.00,,,0.16,WUHU21623XXSP,2013-11-07 15:24:00,
2013-11-07 09:29:00,62.4,59.2,30.19,North,0,0.0,0.0,89,0.00,,,0.16,WUHU21623XXSP,2013-11-07 15:29:00,
2013-11-07 09:34:00,62.2,59.0,30.19,North,0,0.0,0.0,89,0.00,,,0.16,WUHU21623XXSP,2013-11-07 15:34:00,
2013-11-07 09:39:00,61.9,58.7,30.20,North,0,0.0,0.0,89,0.00,,,0.16,WUHU21623XXSP,2013-11-07 15:39:00,
2013-11-07 09:44:00,61.5,58.5,30.20,North,0,0.0,0.0,89,0.00,,,0.16,WUHU21623XXSP,2013-11-07 15:44:00,
2013-11-07 09:49:00,61.3,58.3,30.20,North,0,0.0,0.0,89,0.00,,,0.16,WUHU21623XXSP,2013-11-07 15:49:00,
2013-11-07 09:54:00,61.0,57.8,30.20,North,0,0.0,0.0,89,0.00,,,0.16,WUHU21623XXSP,2013-11-07 15:54:00,
2013-11-07 09:59:00,60.6,57.1,30.20,North,0,0.0,0.0,88,0.00,,,0.16,WUHU21623XXSP,2013-11-07 15:59:00,
2013-11-07 10:04:00,60.1,56.9,30.20,North,0,0.0,0.0,89,0.00,,,0.16,WUHU21623XXSP,2013-11-07 16:04:00,
2013-11-07 10:09:00,59.9,56.7,30.20,North,0,0.0,0.0,89,0.00,,,0.16,WUHU21623XXSP,2013-11-07 16:09:00,
2013-11-07 10:14:00,59.9,56.7,30.20,North,0,0.0,0.0,89,0.00,,,0.16,WUHU21623XXSP,2013-11-07 16:14:00,
2013-11-07 10:19:00,59.9,56.7,30.20,North,0,0.0,0.0,89,0.00,,,0.16,WUHU21623XXSP,2013-11-07 16:19:00,
2013-11-07 10:24:00,60.1,56.9,30.20,North,0,0.0,0.0,89,0.00,,,0.16,WUHU21623XXSP,2013-11-07 16:24:00,
2013-11-07 10:29:00,60.4,56.9,30.20,North,0,0.0,0.0,88,0.00,,,0.16,WUHU21623XXSP,2013-11-07 16:29:00,
2013-11-07 10:34:00,60.4,56.9,30.20,North,0,0.0,0.0,88,0.00,,,0.16,WUHU21623XXSP,2013-11-07 16:34:00,
2013-11-07 10:39:00,60.4,56.9,30.20,North,0,0.0,0.0,88,0.00,,,0.16,WUHU21623XXSP,2013-11-07 16:39:00,
2013-11-07 10:44:00,60.1,56.7,30.20,North,0,0.0,0.0,88,0.00,,,0.16,WUHU21623XXSP,2013-11-07 16:44:00,
2013-11-07 10:49:00,60.1,56.6,30.20,North,0,0.0,0.0,88,0.00,,,0.16,WUHU21623XXSP,2013-11-07 16:49:00,
2013-11-07 10:54:00,59.9,56.0,30.20,North,0,0.0,0.0,87,0.00,,,0.16,WUHU21623XXSP,2013-11-07 16:54:00,
2013-11-07 10:59:00,59.7,56.0,30.20,North,0,0.0,0.0,87,0.00,,,0.16,WUHU21623XXSP,2013-11-07 16:59:00,
2013-11-07 11:04:00,59.5,55.7,30.20,North,0,0.0,0.0,87,0.00,,,0.16,WUHU21623XXSP,2013-11-07 17:04:00,
2013-11-07 11:09:00,59.4,55.4,30.20,North,0,0.0,0.0,86,0.00,,,0.16,WUHU21623XXSP,2013-11-07 17:09:00,
2013-11-07 11:14:00,59.2,55.0,30.20,North,0,0.0,0.0,86,0.00,,,0.16,WUHU21623XXSP,2013-11-07 17:14:00,
2013-11-07 11:19:00,59.2,55.0,30.20,North,0,0.0,0.0,86,0.00,,,0.16,WUHU21623XXSP,2013-11-07 17:19:00,
2013-11-07 11:24:00,59.2,55.0,30.19,North,0,0.0,0.0,86,0.00,,,0.16,WUHU21623XXSP,2013-11-07 17:24:00,
2013-11-07 11:29:00,59.2,54.7,30.20,North,0,0.0,0.0,85,0.00,,,0.16,WUHU21623XXSP,2013-11-07 17:29:00,
2013-11-07 11:34:00,58.8,54.2,30.19,North,0,0.0,0.0,84,0.20,,,0.36,WUHU21623XXSP,2013-11-07 17:34:00,
2013-11-07 11:39:00,58.8,54.0,30.19,North,0,0.0,0.0,84,0.33,,,0.49,WUHU21623XXSP,2013-11-07 17:39:00,
2013-11-07 11:44:00,58.8,54.0,30.19,North,0,0.0,0.0,84,0.35,,,0.51,WUHU21623XXSP,2013-11-07 17:44:00,
2013-11-07 11:49:00,58.8,53.8,30.19,North,0,0.0,0.0,84,0.37,,,0.53,WUHU21623XXSP,2013-11-07 17:49:00,
2013-11-07 11:54:00,58.8,54.0,30.19,North,0,0.0,0.0,84,0.37,,,0.53,WUHU21623XXSP,2013-11-07 17:54:00,
2013-11-07 11:58:00,58.8,54.0,30.18,North,0,0.0,0.0,84,0.37,,,0.53,WUHU21623XXSP,2013-11-07 17:58:00,
2013-11-07 12:03:00,58.8,53.7,30.19,North,0,0.0,0.0,83,0.61,,,0.77,WUHU21623XXSP,2013-11-07 18:03:00,
2013-11-07 12:08:00,58.6,53.5,30.19,North,0,0.0,0.0,83,0.69,,,0.85,WUHU21623XXSP,2013-11-07 18:08:00,
2013-11-07 12:13:00,58.3,52.8,30.18,North,0,0.0,0.0,82,0.73,,,0.89,WUHU21623XXSP,2013-11-07 18:13:00,
2013-11-07 12:18:00,58.3,52.5,30.19,North,0,0.0,0.0,81,0.84,,,1.00,WUHU21623XXSP,2013-11-07 18:18:00,
2013-11-07 12:23:00,58.3,52.8,30.19,North,0,0.0,0.0,82,0.84,,,1.00,WUHU21623XXSP,2013-11-07 18:23:00,
2013-11-07 12:28:00,58.3,52.5,30.18,North,0,0.0,0.0,81,0.84,,,1.00,WUHU21623XXSP,2013-11-07 18:28:00,
2013-11-07 12:33:00,58.3,52.2,30.19,North,0,0.0,0.0,80,0.64,,,1.00,WUHU21623XXSP,2013-11-07 18:33:00,
2013-11-07 12:38:00,58.1,51.6,30.19,North,0,0.0,0.0,79,0.53,,,1.02,WUHU21623XXSP,2013-11-07 18:38:00,
2013-11-07 12:43:00,58.3,51.6,30.19,North,0,0.0,0.0,79,0.51,,,1.02,WUHU21623XXSP,2013-11-07 18:43:00,
2013-11-07 12:48:00,58.5,51.4,30.18,North,0,0.0,0.0,78,0.51,,,1.04,WUHU21623XXSP,2013-11-07 18:48:00,
2013-11-07 12:53:00,58.8,51.6,30.18,North,0,0.0,0.0,77,0.67,,,1.20,WUHU21623XXSP,2013-11-07 18:53:00,
2013-11-07 12:58:00,58.8,51.6,30.18,North,0,0.0,0.0,75,0.67,,,1.22,WUHU21623XXSP,2013-11-07 18:58:00,
2013-11-07 13:03:00,59.2,51.3,30.18,North,0,0.0,0.0,75,0.57,,,1.40,WUHU21623XXSP,2013-11-07 19:03:00,
2013-11-07 13:08:00,59.4,51.4,30.18,North,0,0.0,0.0,75,0.51,,,1.40,WUHU21623XXSP,2013-11-07 19:08:00,
2013-11-07 13:13:00,59.5,51.3,30.18,North,0,0.0,0.0,74,0.51,,,1.40,WUHU21623XXSP,2013-11-07 19:13:00,
2013-11-07 13:18:00,59.5,51.3,30.18,North,0,0.0,0.0,74,0.51,,,1.51,WUHU21623XXSP,2013-11-07 19:18:00,
2013-11-07 13:23:00,59.5,51.6,30.18,North,0,0.0,0.0,75,0.51,,,1.51,WUHU21623XXSP,2013-11-07 19:23:00,
2013-11-07 13:28:00,59.7,51.8,30.18,North,0,0.0,0.0,75,0.51,,,1.51,WUHU21623XXSP,2013-11-07 19:28:00,
2013-11-07 13:33:00,59.7,51.4,30.18,North,0,0.0,0.0,73,0.51,,,1.51,WUHU21623XXSP,2013-11-07 19:33:00,
2013-11-07 13:38:00,59.5,50.9,30.18,North,0,0.0,0.0,73,0.53,,,1.55,WUHU21623XXSP,2013-11-07 19:38:00,
2013-11-07 13:43:00,59.5,50.9,30.18,North,0,0.0,0.0,73,0.53,,,1.55,WUHU21623XXSP,2013-11-07 19:43:00,
2013-11-07 13:48:00,59.5,50.5,30.18,North,0,0.0,0.0,72,0.37,,,1.57,WUHU21623XXSP,2013-11-07 19:48:00,
2013-11-07 13:53:00,59.5,50.5,30.18,North,0,0.0,0.0,72,0.43,,,1.65,WUHU21623XXSP,2013-11-07 19:53:00,
2013-11-07 13:58:00,59.5,50.5,30.17,North,0,0.0,0.0,72,0.35,,,1.65,WUHU21623XXSP,2013-11-07 19:58:00,
2013-11-07 14:03:00,59.9,50.4,30.18,North,0,0.0,0.0,70,0.27,,,1.67,WUHU21623XXSP,2013-11-07 20:03:00,
2013-11-07 14:08:00,59.7,50.0,30.17,North,0,0.0,0.0,70,0.31,,,1.71,WUHU21623XXSP,2013-11-07 20:08:00,
2013-11-07 14:13:00,59.9,50.2,30.17,North,0,0.0,0.0,70,0.28,,,1.75,WUHU21623XXSP,2013-11-07 20:13:00,
2013-11-07 14:18:00,60.1,50.2,30.17,North,0,0.0,0.0,68,0.24,,,1.75,WUHU21623XXSP,2013-11-07 20:18:00,
2013-11-07 14:23:00,60.1,49.5,30.17,North,0,0.0,0.0,67,0.24,,,1.75,WUHU21623XXSP,2013-11-07 20:23:00,
2013-11-07 14:28:00,60.1,49.1,30.17,North,0,0.0,0.0,67,0.57,,,2.08,WUHU21623XXSP,2013-11-07 20:28:00,
2013-11-07 14:33:00,60.1,49.1,30.17,North,0,0.0,0.0,67,0.53,,,2.08,WUHU21623XXSP,2013-11-07 20:33:00,
2013-11-07 14:38:00,60.1,49.1,30.17,North,0,0.0,0.0,67,0.59,,,2.14,WUHU21623XXSP,2013-11-07 20:38:00,
2013-11-07 14:43:00,60.4,49.1,30.17,North,0,0.0,0.0,66,0.59,,,2.14,WUHU21623XXSP,2013-11-07 20:43:00,
2013-11-07 14:48:00,60.4,48.7,30.17,North,0,0.0,0.0,65,0.59,,,2.16,WUHU21623XXSP,2013-11-07 20:48:00,
2013-11-07 14:53:00,60.4,49.1,30.17,North,0,0.0,0.0,66,0.61,,,2.26,WUHU21623XXSP,2013-11-07 20:53:00,
2013-11-07 14:58:00,60.4,48.7,30.17,North,0,0.0,0.0,65,0.59,,,2.26,WUHU21623XXSP,2013-11-07 20:58:00,
2013-11-07 15:03:00,60.4,48.7,30.17,North,0,0.0,0.0,65,0.61,,,2.28,WUHU21623XXSP,2013-11-07 21:03:00,
2013-11-07 15:08:00,60.4,47.8,30.17,North,0,0.0,0.0,63,0.53,,,2.28,WUHU21623XXSP,2013-11-07 21:08:00,
2013-11-07 15:13:00,60.4,47.4,30.17,North,0,0.0,0.0,62,0.59,,,2.34,WUHU21623XXSP,2013-11-07 21:13:00,
2013-11-07 15:18:00,60.1,47.5,30.18,North,0,0.0,0.0,62,0.76,,,2.51,WUHU21623XXSP,2013-11-07 21:18:00,
2013-11-07 15:23:00,60.1,47.0,30.17,North,0,0.0,0.0,62,0.57,,,2.59,WUHU21623XXSP,2013-11-07 21:23:00,
2013-11-07 15:28:00,60.1,47.5,30.18,North,0,0.0,0.0,63,0.57,,,2.65,WUHU21623XXSP,2013-11-07 21:28:00,
2013-11-07 15:33:00,60.3,47.6,30.17,North,0,0.0,0.0,63,0.51,,,2.65,WUHU21623XXSP,2013-11-07 21:33:00,
2013-11-07 15:38:00,60.4,47.6,30.17,North,0,0.0,0.0,63,0.51,,,2.65,WUHU21623XXSP,2013-11-07 21:38:00,
2013-11-07 15:43:00,60.4,47.6,30.17,North,0,0.0,0.0,63,0.53,,,2.67,WUHU21623XXSP,2013-11-07 21:43:00,
2013-11-07 15:48:00,60.4,47.8,30.17,North,0,0.0,0.0,63,0.49,,,2.71,WUHU21623XXSP,2013-11-07 21:48:00,
2013-11-07 15:53:00,60.4,47.8,30.18,North,0,0.0,0.0,63,0.49,,,2.75,WUHU21623XXSP,2013-11-07 21:53:00,
2013-11-07 15:58:00,60.4,47.8,30.18,North,0,0.0,0.0,63,0.49,,,2.75,WUHU21623XXSP,2013-11-07 21:58:00,
2013-11-07 16:03:00,60.4,47.8,30.18,North,0,0.0,0.0,63,0.47,,,2.75,WUHU21623XXSP,2013-11-07 22:03:00,
2013-11-07 16:08:00,60.4,47.8,30.18,North,0,0.0,0.0,63,0.45,,,2.75,WUHU21623XXSP,2013-11-07 22:08:00,
2013-11-07 16:13:00,60.3,47.6,30.18,North,0,0.0,0.0,63,0.33,,,2.75,WUHU21623XXSP,2013-11-07 22:13:00,
2013-11-07 16:18:00,60.1,47.5,30.18,North,0,0.0,0.0,63,0.22,,,2.75,WUHU21623XXSP,2013-11-07 22:18:00,
2013-11-07 16:23:00,59.5,46.9,30.18,North,0,0.0,0.0,63,0.16,,,2.75,WUHU21623XXSP,2013-11-07 22:23:00,
2013-11-07 16:28:00,59.4,46.7,30.18,North,0,0.0,0.0,63,0.10,,,2.75,WUHU21623XXSP,2013-11-07 22:28:00,
2013-11-07 16:33:00,58.8,46.8,30.19,North,0,0.0,0.0,64,0.10,,,2.75,WUHU21623XXSP,2013-11-07 22:33:00,
2013-11-07 16:38:00,58.6,46.5,30.19,North,0,0.0,0.0,64,0.08,,,2.75,WUHU21623XXSP,2013-11-07 22:38:00,
2013-11-07 16:43:00,58.3,46.1,30.19,North,0,0.0,0.0,64,0.04,,,2.75,WUHU21623XXSP,2013-11-07 22:43:00,
2013-11-07 16:48:00,57.9,45.8,30.19,North,0,0.0,0.0,65,0.02,,,2.75,WUHU21623XXSP,2013-11-07 22:48:00,
2013-11-07 16:53:00,57.7,46.0,30.19,North,0,0.0,0.0,65,0.00,,,2.75,WUHU21623XXSP,2013-11-07 22:53:00,
2013-11-07 16:58:00,57.4,46.1,30.19,North,0,0.0,0.0,66,0.00,,,2.75,WUHU21623XXSP,2013-11-07 22:58:00,
2013-11-07 17:03:00,57.0,45.7,30.19,North,0,0.0,0.0,66,0.02,,,2.77,WUHU21623XXSP,2013-11-07 23:03:00,
2013-11-07 17:08:00,56.8,46.1,30.20,North,0,0.0,0.0,67,0.02,,,2.77,WUHU21623XXSP,2013-11-07 23:08:00,
2013-11-07 17:13:00,56.8,46.0,30.20,North,0,0.0,0.0,67,0.02,,,2.77,WUHU21623XXSP,2013-11-07 23:13:00,
2013-11-07 17:18:00,56.5,46.0,30.21,North,0,0.0,0.0,68,0.02,,,2.77,WUHU21623XXSP,2013-11-07 23:18:00,
2013-11-07 17:23:00,56.1,45.7,30.21,North,0,0.0,0.0,68,0.02,,,2.77,WUHU21623XXSP,2013-11-07 23:23:00,
2013-11-07 17:28:00,55.9,45.9,30.21,North,0,0.0,0.0,69,0.02,,,2.77,WUHU21623XXSP,2013-11-07 23:28:00,
2013-11-07 17:33:00,55.6,45.8,30.21,North,0,0.0,0.0,69,0.02,,,2.77,WUHU21623XXSP,2013-11-07 23:33:00,
2013-11-07 17:38:00,55.6,45.6,30.21,North,0,0.0,0.0,69,0.02,,,2.77,WUHU21623XXSP,2013-11-07 23:38:00,
2013-11-07 17:43:00,55.2,45.4,30.21,North,0,0.0,0.0,69,0.02,,,2.77,WUHU21623XXSP,2013-11-07 23:43:00,
2013-11-07 17:48:00,55.2,45.7,30.22,North,0,0.0,0.0,70,0.02,,,2.77,WUHU21623XXSP,2013-11-07 23:48:00,
2013-11-07 17:53:00,55.0,45.5,30.22,North,0,0.0,0.0,70,0.02,,,2.77,WUHU21623XXSP,2013-11-07 23:53:00,
2013-11-07 17:58:00,54.9,45.3,30.22,North,0,0.0,0.0,70,0.00,,,2.77,WUHU21623XXSP,2013-11-07 23:58:00,
2013-11-07 18:03:00,54.7,45.5,30.23,North,0,0.0,0.0,71,0.00,,,2.77,WUHU21623XXSP,2013-11-08 00:03:00,
2013-11-07 18:08:00,54.5,45.5,30.23,North,0,0.0,0.0,71,0.00,,,2.77,WUHU21623XXSP,2013-11-08 00:08:00,
2013-11-07 18:13:00,54.3,45.5,30.23,North,0,0.0,0.0,72,0.00,,,2.77,WUHU21623XXSP,2013-11-08 00:13:00,
2013-11-07 18:18:00,54.1,44.9,30.23,North,0,0.0,0.0,71,0.00,,,2.77,WUHU21623XXSP,2013-11-08 00:18:00,
2013-11-07 18:23:00,54.1,44.9,30.24,North,0,0.0,0.0,71,0.00,,,2.77,WUHU21623XXSP,2013-11-08 00:23:00,
2013-11-07 18:28:00,54.0,44.8,30.23,North,0,0.0,0.0,71,0.00,,,2.77,WUHU21623XXSP,2013-11-08 00:28:00,
2013-11-07 18:33:00,54.0,44.8,30.23,North,0,0.0,0.0,71,0.00,,,2.77,WUHU21623XXSP,2013-11-08 00:33:00,
2013-11-07 18:38:00,54.0,44.8,30.23,North,0,0.0,0.0,70,0.00,,,2.77,WUHU21623XXSP,2013-11-08 00:38:00,
2013-11-07 18:43:00,54.0,44.4,30.23,North,0,0.0,0.0,70,0.02,,,2.79,WUHU21623XXSP,2013-11-08 00:43:00,
2013-11-07 18:48:00,53.8,43.8,30.24,North,0,0.0,0.0,69,0.02,,,2.79,WUHU21623XXSP,2013-11-08 00:48:00,
2013-11-07 18:53:00,53.8,43.8,30.23,North,0,0.0,0.0,69,0.02,,,2.79,WUHU21623XXSP,2013-11-08 00:53:00,
2013-11-07 18:58:00,53.8,43.8,30.24,North,0,0.0,0.0,69,0.02,,,2.79,WUHU21623XXSP,2013-11-08 00:58:00,
2013-11-07 19:03:00,53.8,43.8,30.24,North,0,0.0,0.0,69,0.02,,,2.79,WUHU21623XXSP,2013-11-08 01:03:00,
2013-11-07 19:08:00,53.8,43.4,30.24,North,0,0.0,0.0,68,0.04,,,2.81,WUHU21623XXSP,2013-11-08 01:08:00,
2013-11-07 19:13:00,53.4,43.1,30.24,North,0,0.0,0.0,68,0.06,,,2.83,WUHU21623XXSP,2013-11-08 01:13:00,
2013-11-07 19:18:00,53.4,43.1,30.24,North,0,0.0,0.0,68,0.06,,,2.83,WUHU21623XXSP,2013-11-08 01:18:00,
2013-11-07 19:23:00,53.4,43.1,30.24,North,0,0.0,0.0,68,0.06,,,2.83,WUHU21623XXSP,2013-11-08 01:23:00,
2013-11-07 19:28:00,53.4,43.1,30.24,North,0,0.0,0.0,68,0.08,,,2.85,WUHU21623XXSP,2013-11-08 01:28:00,
2013-11-07 19:33:00,53.4,43.1,30.24,North,0,0.0,0.0,68,0.08,,,2.85,WUHU21623XXSP,2013-11-08 01:33:00,
2013-11-07 19:38:00,53.4,43.1,30.24,North,0,0.0,0.0,68,0.12,,,2.89,WUHU21623XXSP,2013-11-08 01:38:00,
2013-11-07 19:43:00,53.2,42.9,30.25,North,0,0.0,0.0,68,0.10,,,2.89,WUHU21623XXSP,2013-11-08 01:43:00,
2013-11-07 19:48:00,53.2,42.9,30.25,North,0,0.0,0.0,68,0.10,,,2.89,WUHU21623XXSP,2013-11-08 01:48:00,
2013-11-07 19:53:00,53.1,42.8,30.25,North,0,0.0,0.0,68,0.10,,,2.89,WUHU21623XXSP,2013-11-08 01:53:00,
2013-11-07 19:58:00,52.9,42.6,30.26,North,0,0.0,0.0,68,0.10,,,2.89,WUHU21623XXSP,2013-11-08 01:58:00,
2013-11-07 20:03:00,52.9,42.6,30.26,North,0,0.0,0.0,68,0.10,,,2.89,WUHU21623XXSP,2013-11-08 02:03:00,
2013-11-07 20:08:00,52.9,42.6,30.26,North,0,0.0,0.0,68,0.06,,,2.89,WUHU21623XXSP,2013-11-08 02:08:00,
2013-11-07 20:13:00,52.7,42.6,30.26,North,0,0.0,0.0,68,0.06,,,2.89,WUHU21623XXSP,2013-11-08 02:13:00,
2013-11-07 20:18:00,52.7,42.4,30.26,North,0,0.0,0.0,68,0.06,,,2.89,WUHU21623XXSP,2013-11-08 02:18:00,
2013-11-07 20:23:00,52.5,42.3,30.26,North,0,0.0,0.0,68,0.06,,,2.89,WUHU21623XXSP,2013-11-08 02:23:00,
2013-11-07 20:28:00,52.5,42.7,30.26,North,0,0.0,0.0,69,0.04,,,2.89,WUHU21623XXSP,2013-11-08 02:28:00,
2013-11-07 20:33:00,52.3,42.5,30.26,North,0,0.0,0.0,69,0.00,,,2.89,WUHU21623XXSP,2013-11-08 02:33:00,
2013-11-07 20:38:00,52.3,42.5,30.26,North,0,0.0,0.0,69,0.00,,,2.89,WUHU21623XXSP,2013-11-08 02:38:00,
2013-11-07 20:43:00,52.3,42.5,30.26,North,0,0.0,0.0,69,0.00,,,2.89,WUHU21623XXSP,2013-11-08 02:43:00,
2013-11-07 20:48:00,52.2,42.4,30.26,North,0,0.0,0.0,69,0.00,,,2.89,WUHU21623XXSP,2013-11-08 02:48:00,
2013-11-07 20:53:00,52.2,42.4,30.26,North,0,0.0,0.0,69,0.00,,,2.89,WUHU21623XXSP,2013-11-08 02:53:00,
2013-11-07 20:58:00,52.0,42.2,30.27,North,0,0.0,0.0,69,0.00,,,2.89,WUHU21623XXSP,2013-11-08 02:58:00,
2013-11-07 21:03:00,51.8,42.0,30.27,North,0,0.0,0.0,69,0.00,,,2.89,WUHU21623XXSP,2013-11-08 03:03:00,
2013-11-07 21:08:00,51.6,42.0,30.27,North,0,0.0,0.0,69,0.00,,,2.89,WUHU21623XXSP,2013-11-08 03:08:00,
2013-11-07 21:13:00,51.6,42.3,30.27,North,0,0.0,0.0,70,0.00,,,2.89,WUHU21623XXSP,2013-11-08 03:13:00,
2013-11-07 21:18:00,51.6,41.8,30.27,North,0,0.0,0.0,69,0.00,,,2.89,WUHU21623XXSP,2013-11-08 03:18:00,
2013-11-07 21:23:00,51.4,41.7,30.27,North,0,0.0,0.0,69,0.00,,,2.89,WUHU21623XXSP,2013-11-08 03:23:00,
2013-11-07 21:28:00,51.4,41.7,30.27,North,0,0.0,0.0,69,0.00,,,2.89,WUHU21623XXSP,2013-11-08 03:28:00,
2013-11-07 21:33:00,51.3,41.5,30.27,North,0,0.0,0.0,69,0.00,,,2.89,WUHU21623XXSP,2013-11-08 03:33:00,
2013-11-07 21:38:00,51.3,41.5,30.26,North,0,0.0,0.0,69,0.00,,,2.89,WUHU21623XXSP,2013-11-08 03:38:00,
2013-11-07 21:43:00,51.1,41.3,30.26,North,0,0.0,0.0,69,0.02,,,2.91,WUHU21623XXSP,2013-11-08 03:43:00,
2013-11-07 21:48:00,51.1,41.3,30.26,North,0,0.0,0.0,69,0.02,,,2.91,WUHU21623XXSP,2013-11-08 03:48:00,
2013-11-07 21:53:00,51.1,41.3,30.26,North,0,0.0,0.0,69,0.02,,,2.91,WUHU21623XXSP,2013-11-08 03:53:00,
2013-11-07 21:58:00,50.9,41.3,30.26,North,0,0.0,0.0,69,0.02,,,2.91,WUHU21623XXSP,2013-11-08 03:58:00,
2013-11-07 22:03:00,50.9,41.1,30.26,North,0,0.0,0.0,69,0.02,,,2.91,WUHU21623XXSP,2013-11-08 04:03:00,
2013-11-07 22:08:00,50.9,41.1,30.26,North,0,0.0,0.0,69,0.02,,,2.91,WUHU21623XXSP,2013-11-08 04:08:00,
2013-11-07 22:13:00,50.7,40.9,30.26,North,0,0.0,0.0,68,0.02,,,2.91,WUHU21623XXSP,2013-11-08 04:13:00,
2013-11-07 22:18:00,50.7,40.5,30.26,North,0,0.0,0.0,68,0.02,,,2.91,WUHU21623XXSP,2013-11-08 04:18:00,
2013-11-07 22:23:00,50.7,40.5,30.26,North,0,0.0,0.0,68,0.02,,,2.91,WUHU21623XXSP,2013-11-08 04:23:00,
2013-11-07 22:28:00,50.7,40.5,30.26,North,0,0.0,0.0,68,0.02,,,2.91,WUHU21623XXSP,2013-11-08 04:28:00,
2013-11-07 22:33:00,50.7,40.1,30.26,North,0,0.0,0.0,67,0.02,,,2.91,WUHU21623XXSP,2013-11-08 04:33:00,
2013-11-07 22:38:00,50.5,40.0,30.26,North,0,0.0,0.0,67,0.02,,,2.91,WUHU21623XXSP,2013-11-08 04:38:00,
2013-11-07 22:43:00,50.7,39.7,30.26,North,0,0.0,0.0,66,0.00,,,2.91,WUHU21623XXSP,2013-11-08 04:43:00,
2013-11-07 22:48:00,50.5,39.6,30.26,North,0,0.0,0.0,66,0.00,,,2.91,WUHU21623XXSP,2013-11-08 04:48:00,
2013-11-07 22:53:00,50.7,39.7,30.26,North,0,0.0,0.0,66,0.02,,,2.93,WUHU21623XXSP,2013-11-08 04:53:00,
2013-11-07 22:58:00,50.7,39.7,30.26,North,0,0.0,0.0,66,0.02,,,2.93,WUHU21623XXSP,2013-11-08 04:58:00,
2013-11-07 23:01:00,50.7,39.7,30.26,North,0,0.0,0.0,66,0.02,,,2.93,WUHU21623XXSP,2013-11-08 05:01:00,
2013-11-07 23:06:00,50.5,39.6,30.26,North,0,0.0,0.0,66,0.02,,,2.93,WUHU21623XXSP,2013-11-08 05:06:00,
2013-11-07 23:11:00,50.7,39.3,30.25,North,0,0.0,0.0,65,0.02,,,2.93,WUHU21623XXSP,2013-11-08 05:11:00,
2013-11-07 23:16:00,50.7,39.3,30.26,North,0,0.0,0.0,65,0.02,,,2.93,WUHU21623XXSP,2013-11-08 05:16:00,
2013-11-07 23:21:00,50.5,39.2,30.26,North,0,0.0,0.0,65,0.06,,,2.97,WUHU21623XXSP,2013-11-08 05:21:00,
2013-11-07 23:26:00,50.5,39.2,30.25,North,0,0.0,0.0,65,0.11,,,3.02,WUHU21623XXSP,2013-11-08 05:26:00,
2013-11-07 23:31:00,50.5,39.2,30.25,North,0,0.0,0.0,65,0.11,,,3.02,WUHU21623XXSP,2013-11-08 05:31:00,
2013-11-07 23:36:00,50.5,38.6,30.25,North,0,0.0,0.0,64,0.11,,,3.02,WUHU21623XXSP,2013-11-08 05:36:00,
2013-11-07 23:41:00,50.4,38.6,30.25,North,0,0.0,0.0,64,0.11,,,3.02,WUHU21623XXSP,2013-11-08 05:41:00,
2013-11-07 23:46:00,50.4,38.6,30.25,North,0,0.0,0.0,64,0.11,,,3.02,WUHU21623XXSP,2013-11-08 05:46:00,
2013-11-07 23:51:00,50.2,38.4,30.25,North,0,0.0,0.0,64,0.09,,,3.02,WUHU21623XXSP,2013-11-08 05:51:00,
2013-11-07 23:56:00,50.2,38.4,30.25,North,0,0.0,0.0,64,0.09,,,3.02,WUHU21623XXSP,2013-11-08 05:56:00,